Hourly Data Report for September 01, 2017

All times are specified in Local Standard Time (LST). Add 1 hour to adjust for Daylight Saving Time where and when it is observed.

BUCTOUCHE CDA CS
NEW BRUNSWICK

46°25'49.006" N
64°46'05.009" W
35.90 m
8100593
71666
ABT

Download Data

Hourly Data (September 2017)
Hourly Data Report for September 1, 2017
Temp Definition
°C
Dew Point Temp Definition
°C
Rel Hum Definition
%
Wind Dir Definition
10's deg

Wind Spd Definition
km/h
Visibility Definition
km
Stn Press Definition
kPa
Hmdx Definition


Wind Chill Definition


Weather Definition


TIME
00:00 10.9 7.9 82 27 12   99.97     LegendNANA
01:00 10.1 6.8 80 26 13   100.01     LegendNANA
02:00 9.3 6.3 82 24 11   100.00     LegendNANA
03:00 7.7 6.0 89 22 11   100.01     LegendNANA
04:00 7.8 6.5 91 22 12   100.03     LegendNANA
05:00 7.7 6.5 92 23 9   100.05     LegendNANA
06:00 7.5 6.3 92 23 11   100.06     LegendNANA
07:00 9.0 7.2 88 23 13   100.09     LegendNANA
08:00 11.6 7.1 74 26 15   100.11     LegendNANA
09:00 12.1 5.7 65 27 20   100.13     LegendNANA
10:00 13.7 5.3 57 26 17   100.11     LegendNANA
11:00 13.7 4.2 53 26 18   100.07     LegendNANA
12:00 15.5 2.6 42 24 21   100.03     LegendNANA
13:00 15.8 3.7 44 26 16   100.04     LegendNANA
14:00 14.3 3.5 48 25 22   100.06     LegendNANA
15:00 11.4 6.7 73 27 13   100.13     LegendNANA
16:00 13.6 5.5 58 24 18   100.12     LegendNANA
17:00 10.7 7.1 79 26 12   100.18     LegendNANA
18:00 11.0 6.2 72 25 18   100.22     LegendNANA
19:00 10.1 6.2 76 25 12   100.27     LegendNANA
20:00 9.8 6.1 78 25 13   100.36     LegendNANA
21:00 9.5 6.6 82 25 13   100.39     LegendNANA
22:00 10.4 6.7 78 28 14   100.46     LegendNANA
23:00 10.0 6.7 80 28 11   100.52     LegendNANA

Notes on Data Quality.

Legend

  • E = Estimated
  • M = Missing
  • NA = Not Available
  • ‡ = Partner data that is not subject to review by the National Climate Archives
Date modified: